Wind_Speed
28 27 25 24 23 22 20 19 20 22 23 24 25 25 26 26 26 27 25 24 24 24 23 22 21 20 20 19 18 17 16 15 14 13 12 12 12 11 11 10 10 11 10 11 11 11 12 12 12
31 30 28 27 25 22 19 20 21 22 23 23 24 25 25 26 26 26 25 25 25 25 24 23 22 21 20 19 18 18 17 16 15 14 14 13 12 12 11 11 11 11 11 11 12 12 13 13 13
34 33 31 29 26 22 21 21 22 22 22 23 23 24 25 25 25 25 25 24 25 25 25 24 23 22 21 20 19 18 17 16 16 15 14 14 13 12 12 11 11 12 12 12 13 13 13 13 14
37 36 35 32 27 24 23 24 24 23 22 22 22 23 23 23 24 25 25 25 25 25 25 24 24 23 22 21 20 19 18 17 16 15 14 14 13 13 12 12 12 13 13 13 13 13 14 14 15
40 39 38 35 30 26 26 26 26 24 23 23 23 22 23 23 24 25 25 25 26 26 26 25 24 23 23 22 21 20 18 18 17 16 15 14 14 13 13 13 13 13 13 13 13 14 15 16 17
42 42 41 37 32 30 29 29 28 27 25 24 24 23 23 23 24 24 25 25 26 26 26 26 25 24 24 23 22 20 19 18 17 17 16 15 15 14 14 14 13 13 14 14 15 16 16 17 18
45 45 43 39 36 33 31 31 30 29 28 27 26 25 24 24 23 24 24 25 26 26 27 27 26 25 25 23 22 21 20 19 18 17 17 16 16 15 15 14 14 14 15 15 16 17 18 19 19
48 48 46 42 38 35 34 34 32 32 30 30 29 27 25 25 24 24 24 25 25 26 26 26 26 26 25 24 23 22 21 20 19 18 17 17 16 16 16 15 15 16 16 17 17 18 19 20 21
51 51 48 43 40 38 37 37 36 34 33 32 31 29 27 27 26 25 25 25 25 26 26 26 26 26 25 24 23 22 22 21 20 19 19 18 17 17 17 17 17 17 18 18 19 19 20 21 23
54 54 48 44 42 41 41 41 39 38 36 34 32 31 30 29 28 26 25 26 26 26 26 26 27 27 26 25 24 23 22 22 20 20 19 19 19 18 18 19 19 19 19 19 20 21 22 23 24
56 54 49 46 45 45 44 44 43 41 39 36 34 33 32 32 30 28 27 27 27 27 27 27 27 27 26 25 24 23 23 22 21 21 20 20 20 20 20 20 19 20 20 21 22 23 24 25 26
57 54 51 49 48 47 47 47 46 45 42 40 38 37 35 34 32 30 29 29 29 28 28 28 27 27 26 25 24 24 23 23 23 22 21 21 21 21 21 20 20 21 22 22 24 25 26 27 28
59 56 54 52 51 50 50 50 49 47 45 43 41 39 37 35 34 33 32 31 31 30 29 29 29 28 27 26 25 25 24 24 23 23 23 22 22 22 21 21 22 23 23 25 26 27 28 29 30
59 58 56 55 54 53 53 52 52 48 47 46 44 42 40 38 36 35 33 32 32 31 30 30 30 29 28 27 27 26 25 25 25 25 24 23 23 23 23 24 24 25 25 27 28 29 30 31 32
60 60 59 57 56 54 55 56 53 49 49 48 46 45 43 41 39 37 35 34 33 33 32 31 31 30 30 29 28 28 27 27 26 26 25 24 24 25 25 25 26 27 28 29 30 31 32 33 33
60 62 62 58 57 56 58 58 53 51 51 50 48 47 45 43 41 39 38 36 35 35 34 33 33 32 31 31 30 29 29 28 28 27 27 26 27 27 27 27 28 29 30 31 32 33 33 34 35
62 63 62 59 58 58 59 58 54 54 54 52 50 49 47 46 44 42 40 39 37 36 36 35 34 34 33 32 32 31 30 29 29 29 29 29 29 29 29 29 30 31 32 33 34 34 35 35 36
62 62 61 60 58 59 60 59 57 56 56 55 53 51 50 48 46 44 43 41 40 39 37 36 36 35 35 34 33 32 31 31 31 31 31 31 30 30 30 31 32 33 34 34 35 35 36 36 37
60 60 60 58 58 60 60 61 59 59 58 57 55 54 52 50 48 47 45 44 43 41 39 38 37 37 36 35 34 33 33 33 33 33 32 32 32 32 33 34 34 35 35 35 36 36 36 37 37
59 59 58 57 57 59 61 62 62 62 60 59 57 55 54 53 51 50 48 46 44 42 41 39 38 38 37 36 35 35 35 35 34 34 34 34 34 35 35 36 36 36 36 36 37 37 37 38 37
59 58 58 57 56 58 61 64 63 63 62 61 60 57 56 54 53 52 50 48 46 44 42 41 40 39 38 37 37 37 36 35 35 35 36 36 37 37 37 37 37 37 37 37 37 37 38 37 37
57 55 55 56 57 58 59 63 64 63 63 62 61 59 57 55 54 53 52 51 49 46 45 43 41 40 39 39 38 38 37 36 36 37 38 38 38 38 38 38 38 37 37 37 37 37 37 37 37
54 53 54 56 57 57 58 62 63 63 63 61 60 59 57 56 54 53 52 51 50 48 47 45 43 42 41 41 40 39 38 38 38 38 39 39 39 39 38 38 38 37 37 38 37 37 37 37 37
53 53 54 55 56 59 57 60 63 62 60 59 58 58 57 55 54 54 53 52 51 50 48 47 45 44 43 42 41 40 39 39 39 39 39 39 39 39 38 38 38 38 37 37 37 37 37 37 37
52 53 53 54 56 59 56 60 63 58 56 56 56 56 56 55 55 54 53 52 52 51 49 48 47 45 44 43 42 41 40 40 40 40 40 40 39 39 39 38 38 37 37 37 37 37 37 37 37
52 54 55 54 54 55 57 60 59 55 53 54 55 55 55 55 55 54 53 52 51 50 49 48 47 46 44 43 42 42 41 41 41 40 40 40 39 39 39 38 37 37 37 37 37 36 37 37 37
51 54 54 52 49 48 53 54 54 54 51 51 52 53 54 54 54 53 52 51 51 50 49 48 46 46 44 43 43 42 42 41 41 40 40 40 39 39 38 37 37 37 37 37 37 37 37 37 36
47 49 52 54 52 49 47 47 51 51 48 48 49 50 51 53 53 53 52 51 50 50 49 48 47 46 45 44 43 42 42 41 40 40 40 39 39 38 37 37 37 36 36 36 37 37 37 36 36
44 47 50 51 52 50 47 45 44 46 46 46 46 47 49 51 52 52 50 49 49 48 48 47 47 46 45 44 43 42 42 41 40 39 39 38 38 37 37 36 36 36 36 36 36 36 36 36 36
42 45 48 49 50 48 46 44 42 41 43 44 44 45 46 48 50 51 50 48 48 47 47 46 46 45 43 42 42 42 41 40 40 39 38 37 37 36 36 36 35 35 35 36 36 36 36 36 36
Wind_Direction
249 248 249 248 247 244 241 237 233 231 230 230 229 229 229 229 229 230 229 228 227 226 225 225 224 224 224 224 225 226 228 230 233 237 241 247 253 258 263 267 272 276 280 283 287 292 295 298 300
248 247 247 246 244 241 237 234 231 230 229 228 227 226 226 227 227 228 228 227 226 226 226 224 224 223 223 224 226 228 229 232 235 239 244 249 253 258 262 267 271 276 280 284 288 291 294 296 298
247 246 245 243 240 238 234 231 229 228 228 227 226 225 225 226 226 227 227 227 226 226 226 225 224 224 224 224 226 228 230 233 236 241 245 248 252 257 262 266 271 277 282 286 290 292 294 297 300
245 244 243 241 237 235 233 230 228 226 226 225 224 224 224 224 225 225 226 226 225 225 224 224 225 225 225 226 227 228 231 234 237 240 243 246 251 256 260 266 272 279 283 286 288 291 293 296 299
244 243 242 239 236 233 232 230 228 226 224 224 224 222 221 221 222 223 224 224 224 223 223 223 224 224 225 227 228 230 231 233 236 239 243 246 251 255 261 267 272 278 281 283 286 290 292 296 298
243 242 241 238 235 233 232 231 229 226 224 224 224 222 220 220 221 222 223 223 223 222 222 222 223 223 225 226 228 229 230 232 236 240 243 247 252 256 261 267 272 276 278 282 286 289 292 295 297
243 241 240 237 234 232 232 231 230 227 225 224 223 222 220 220 221 222 223 223 223 222 222 222 222 223 224 226 227 229 231 234 237 241 244 248 252 256 261 267 273 275 278 283 286 289 292 294 295
241 241 239 236 234 232 232 231 230 228 226 225 223 222 220 220 220 221 222 222 221 221 220 220 221 222 223 225 227 229 232 235 238 241 244 248 252 256 262 268 272 275 279 283 286 288 291 293 295
240 240 238 236 234 231 231 231 229 228 226 225 225 223 221 221 220 220 221 221 220 219 219 220 221 222 223 224 227 230 234 236 238 241 245 248 253 257 264 269 272 276 279 282 285 289 291 293 295
239 240 238 237 234 231 230 229 228 227 226 225 224 223 221 221 221 220 220 220 219 218 218 219 219 221 223 226 229 232 234 236 239 243 245 249 253 258 265 268 272 275 278 282 285 289 291 293 295
239 239 237 235 233 231 229 229 228 227 226 225 224 223 222 221 221 220 220 219 219 218 218 218 219 221 224 226 229 232 234 236 240 244 246 250 254 261 265 268 271 275 279 283 286 289 292 294 295
240 238 236 234 232 230 228 228 227 227 226 225 224 222 222 221 221 221 220 220 219 219 219 218 219 221 224 226 229 231 233 237 240 243 248 252 257 262 264 267 271 276 279 283 287 290 293 294 295
239 237 235 233 231 229 228 227 227 226 225 225 225 224 223 222 221 220 220 220 219 219 219 219 220 222 224 227 229 232 235 238 241 245 250 255 259 262 264 267 272 276 280 283 287 290 293 295 296
237 236 234 232 230 228 228 227 227 224 225 225 225 224 223 221 221 221 221 221 220 220 221 221 222 224 226 228 231 233 236 239 242 247 251 256 259 262 264 268 273 276 280 284 288 290 293 294 296
235 235 233 231 230 228 229 227 226 224 225 225 225 224 223 222 221 221 221 221 222 222 222 223 224 225 228 230 232 235 237 240 244 248 253 257 260 262 266 270 274 278 281 285 288 291 293 294 296
234 234 233 230 230 229 230 228 226 225 225 225 225 224 224 222 221 221 221 222 223 223 224 224 225 227 229 232 234 236 238 242 246 250 254 258 261 264 268 272 275 278 281 285 288 291 293 294 296
233 233 233 231 231 231 231 229 225 226 225 225 224 224 223 223 222 222 222 223 224 225 226 227 228 229 231 233 235 237 240 244 248 252 255 258 262 266 269 273 276 279 282 285 288 290 292 294 295
232 234 234 232 231 232 231 230 226 226 225 224 224 223 223 222 222 222 222 224 225 226 227 229 230 231 233 235 237 239 242 245 249 253 256 260 264 268 271 273 277 279 282 286 288 290 292 293 295
232 233 233 233 232 232 231 230 227 226 226 224 224 223 222 222 222 222 223 224 226 227 228 230 231 233 235 237 239 241 244 247 250 254 258 261 265 268 271 274 277 280 283 286 288 290 291 293 295
231 232 233 232 231 232 231 230 227 226 225 224 224 224 223 222 222 223 224 225 227 228 229 231 233 235 237 239 241 243 245 249 252 255 259 262 264 268 271 275 278 281 283 285 288 290 292 293 295
229 230 231 232 232 233 232 231 228 226 225 224 223 223 224 223 223 224 224 226 227 229 230 232 234 236 238 240 242 244 247 250 253 257 259 262 265 268 272 275 279 281 283 285 288 290 292 293 294
229 228 230 231 233 233 233 233 227 226 226 225 224 224 224 225 225 225 226 226 228 229 231 233 234 236 238 241 243 245 248 251 254 257 260 263 266 269 273 275 278 281 283 285 287 289 291 292 293
227 227 229 230 233 235 234 235 229 226 226 225 224 225 225 226 226 226 227 227 228 229 231 233 234 236 238 241 244 247 249 251 254 258 261 264 267 270 272 275 278 280 282 285 287 288 290 291 292
225 226 228 230 233 236 233 236 232 226 225 225 225 226 226 226 227 227 227 227 228 229 231 233 235 237 239 242 245 247 250 252 255 258 261 264 267 269 272 275 278 280 282 284 286 287 289 290 291
223 223 226 228 232 235 232 235 233 226 225 226 226 226 226 227 227 227 227 228 230 231 232 234 236 238 239 242 244 246 249 252 255 258 261 264 266 269 272 275 277 279 281 283 285 286 288 289 291
222 222 223 227 232 235 234 235 233 227 224 224 225 226 226 227 228 228 228 229 230 232 233 234 235 237 239 241 243 246 249 252 255 258 261 263 266 268 271 274 276 278 281 283 284 285 286 288 289
222 222 223 227 230 233 236 234 231 227 224 222 224 226 226 227 228 229 229 229 231 232 234 235 236 237 239 241 243 245 248 251 254 257 259 262 265 268 270 272 275 278 280 281 283 284 286 287 288
222 223 223 225 228 231 234 231 229 226 224 221 222 224 226 227 228 229 230 230 231 232 233 235 237 238 239 241 243 245 248 250 253 256 258 261 264 266 268 271 274 276 278 280 282 283 285 286 287
221 221 223 225 229 232 234 230 225 225 224 222 221 222 223 225 227 228 230 231 231 232 233 234 236 238 239 241 243 245 247 249 252 255 258 260 262 264 267 270 273 276 278 279 280 282 283 285 286
222 223 223 225 228 229 231 229 222 224 224 222 221 221 222 224 225 226 227 228 230 232 233 234 235 237 239 241 243 245 247 249 251 254 257 258 261 263 266 270 273 275 276 277 279 280 282 284 286
Height
5830 5830 5831 5831 5833 5834 5835 5836 5836 5837 5838 5840 5842 5844 5846 5849 5852 5855 5856 5856 5858 5860 5862 5864 5866 5868 5869 5871 5872 5874 5875 5876 5877 5878 5879 5879 5879 5879 5879 5879 5879 5878 5877 5877 5876 5875 5874 5873 5872
5824 5825 5826 5826 5827 5829 5831 5832 5832 5833 5834 5836 5838 5840 5842 5844 5846 5849 5850 5852 5854 5857 5859 5861 5863 5865 5867 5868 5870 5872 5873 5874 5875 5876 5877 5877 5877 5877 5877 5877 5876 5876 5875 5875 5874 5873 5872 5871 5870
5817 5818 5820 5821 5823 5826 5827 5827 5828 5829 5831 5832 5834 5835 5838 5840 5842 5844 5846 5848 5851 5853 5855 5858 5860 5862 5864 5866 5867 5869 5870 5872 5873 5873 5874 5875 5875 5875 5875 5875 5874 5874 5873 5872 5871 5870 5870 5869 5868
5810 5812 5813 5816 5819 5821 5822 5822 5823 5825 5827 5828 5830 5832 5834 5837 5838 5840 5842 5844 5847 5849 5851 5854 5856 5859 5861 5863 5865 5866 5867 5869 5870 5871 5871 5872 5872 5872 5872 5872 5872 5871 5870 5870 5869 5868 5867 5866 5865
5801 5804 5806 5809 5813 5816 5816 5817 5819 5821 5823 5825 5826 5828 5830 5832 5834 5836 5838 5840 5842 5845 5848 5850 5853 5855 5857 5859 5861 5863 5865 5866 5867 5868 5869 5869 5870 5870 5870 5869 5869 5868 5868 5867 5866 5865 5864 5863 5862
5793 5795 5799 5802 5807 5810 5811 5812 5814 5816 5818 5820 5822 5824 5826 5828 5830 5832 5834 5836 5838 5841 5843 5846 5849 5851 5854 5856 5858 5860 5861 5863 5864 5865 5866 5866 5867 5867 5867 5867 5866 5866 5865 5864 5863 5862 5861 5860 5859
5784 5786 5789 5795 5799 5803 5805 5806 5808 5811 5813 5816 5818 5820 5822 5824 5826 5828 5829 5832 5834 5837 5839 5842 5845 5847 5850 5852 5854 5856 5858 5859 5861 5862 5863 5863 5864 5864 5864 5864 5863 5863 5862 5861 5860 5859 5858 5857 5856
5772 5776 5780 5786 5792 5797 5798 5799 5802 5805 5808 5810 5812 5816 5818 5820 5821 5823 5825 5827 5830 5833 5835 5838 5841 5843 5846 5848 5850 5853 5854 5856 5857 5858 5859 5860 5860 5860 5860 5860 5860 5859 5859 5858 5857 5856 5855 5853 5852
5760 5765 5771 5779 5784 5788 5790 5792 5795 5798 5801 5804 5807 5811 5813 5815 5817 5819 5821 5823 5826 5829 5831 5834 5837 5839 5842 5844 5846 5848 5850 5852 5853 5854 5855 5856 5857 5857 5857 5857 5856 5856 5855 5854 5853 5852 5851 5849 5848
5748 5753 5764 5770 5774 5778 5780 5783 5787 5791 5794 5798 5801 5805 5807 5809 5812 5815 5817 5819 5822 5824 5827 5830 5832 5835 5838 5840 5842 5844 5846 5848 5849 5851 5852 5852 5853 5853 5853 5853 5853 5852 5852 5851 5850 5848 5847 5845 5843
5737 5744 5753 5758 5762 5766 5770 5774 5778 5782 5787 5791 5795 5798 5801 5804 5807 5809 5812 5814 5817 5820 5822 5825 5828 5831 5833 5836 5838 5840 5842 5844 5845 5847 5848 5848 5849 5849 5849 5849 5848 5848 5847 5846 5845 5844 5842 5840 5839
5725 5733 5739 5746 5750 5755 5760 5764 5769 5774 5780 5783 5787 5790 5794 5798 5801 5804 5807 5809 5812 5815 5818 5821 5824 5826 5829 5831 5834 5836 5838 5840 5841 5842 5843 5844 5845 5845 5845 5844 5844 5844 5843 5842 5841 5839 5837 5835 5834
5712 5721 5726 5732 5738 5743 5748 5753 5758 5764 5771 5775 5779 5783 5788 5792 5795 5798 5800 5804 5807 5810 5813 5816 5819 5822 5824 5827 5829 5832 5834 5835 5837 5838 5839 5840 5840 5840 5840 5840 5840 5839 5838 5837 5835 5834 5832 5830 5828
5700 5706 5712 5718 5725 5731 5737 5742 5747 5756 5762 5766 5771 5776 5780 5785 5788 5791 5795 5798 5802 5805 5808 5811 5814 5817 5820 5822 5825 5827 5829 5831 5832 5833 5834 5835 5835 5835 5835 5835 5835 5834 5833 5832 5830 5829 5827 5825 5822
5685 5691 5697 5705 5713 5720 5724 5729 5739 5749 5752 5757 5762 5767 5772 5777 5781 5785 5789 5792 5796 5799 5802 5805 5809 5811 5814 5817 5819 5821 5824 5825 5827 5828 5829 5830 5830 5831 5831 5830 5830 5829 5827 5826 5825 5823 5821 5819 5816
5670 5675 5683 5695 5701 5708 5711 5720 5732 5737 5741 5747 5753 5759 5764 5769 5774 5778 5782 5785 5789 5792 5796 5799 5803 5806 5808 5811 5813 5816 5818 5820 5822 5823 5824 5824 5825 5825 5825 5825 5824 5823 5822 5820 5819 5817 5814 5812 5810
5654 5662 5672 5684 5690 5695 5699 5710 5721 5725 5729 5736 5743 5749 5755 5761 5766 5771 5775 5779 5782 5786 5790 5793 5797 5800 5802 5805 5807 5810 5812 5814 5816 5817 5818 5819 5819 5819 5819 5819 5818 5817 5815 5814 5812 5810 5808 5806 5803
5646 5654 5662 5671 5678 5682 5688 5697 5708 5712 5717 5725 5732 5738 5745 5751 5758 5763 5767 5771 5775 5779 5783 5786 5790 5793 5796 5798 5801 5804 5806 5808 5809 5811 5812 5812 5813 5813 5813 5812 5812 5810 5809 5807 5805 5803 5801 5799 5796
5635 5641 5648 5658 5664 5668 5675 5683 5693 5699 5705 5713 5720 5727 5735 5742 5748 5753 5758 5762 5767 5771 5776 5780 5783 5786 5789 5792 5795 5798 5799 5801 5803 5804 5805 5806 5806 5806 5806 5805 5805 5803 5802 5800 5798 5796 5794 5792 5789
5619 5626 5635 5644 5650 5655 5661 5668 5677 5684 5692 5701 5709 5717 5725 5732 5737 5743 5749 5754 5759 5764 5768 5772 5776 5779 5783 5786 5788 5790 5792 5794 5796 5797 5798 5799 5799 5799 5799 5798 5797 5796 5795 5793 5791 5789 5787 5784 5782
5605 5615 5625 5632 5638 5641 5647 5652 5662 5672 5680 5688 5697 5705 5713 5721 5728 5734 5740 5745 5751 5756 5761 5765 5768 5772 5775 5778 5780 5782 5785 5787 5789 5790 5791 5791 5791 5791 5791 5791 5790 5789 5787 5785 5784 5782 5779 5777 5774
5595 5606 5614 5620 5624 5628 5634 5638 5650 5660 5667 5676 5686 5695 5703 5711 5718 5724 5730 5736 5742 5748 5752 5756 5760 5764 5767 5769 5772 5775 5778 5780 5781 5782 5782 5783 5783 5783 5783 5783 5782 5781 5779 5778 5776 5774 5772 5769 5767
5587 5596 5602 5607 5611 5615 5620 5625 5637 5646 5655 5666 5677 5686 5694 5701 5708 5715 5721 5727 5732 5737 5742 5747 5751 5755 5758 5761 5765 5767 5770 5772 5772 5773 5774 5775 5775 5775 5775 5775 5774 5773 5772 5770 5768 5766 5764 5762 5759
5576 5583 5589 5594 5597 5599 5609 5613 5621 5635 5648 5659 5668 5676 5683 5690 5697 5704 5710 5715 5721 5727 5732 5737 5742 5746 5750 5753 5756 5759 5761 5763 5764 5765 5766 5766 5767 5767 5767 5766 5766 5765 5764 5762 5760 5758 5756 5754 5751
5561 5569 5576 5580 5582 5588 5600 5600 5610 5630 5641 5649 5657 5665 5672 5679 5685 5692 5698 5705 5711 5717 5723 5728 5733 5737 5741 5744 5747 5750 5752 5754 5755 5757 5757 5758 5759 5759 5759 5758 5758 5757 5755 5754 5752 5750 5748 5746 5743
5551 5558 5565 5571 5576 5584 5588 5589 5606 5621 5630 5637 5645 5652 5659 5666 5674 5681 5688 5695 5701 5707 5713 5718 5723 5727 5731 5735 5738 5741 5743 5745 5747 5748 5749 5750 5750 5750 5750 5750 5749 5749 5747 5746 5744 5742 5740 5738 5735
5540 5546 5557 5563 5567 5572 5575 5586 5598 5608 5618 5626 5634 5641 5648 5656 5663 5670 5677 5684 5690 5697 5702 5708 5713 5717 5721 5725 5728 5731 5734 5736 5738 5739 5740 5741 5742 5742 5742 5741 5741 5740 5739 5737 5736 5734 5732 5729 5727
5531 5540 5546 5550 5556 5561 5567 5577 5588 5599 5609 5617 5624 5631 5638 5645 5652 5659 5666 5673 5679 5686 5692 5697 5702 5707 5711 5715 5719 5722 5724 5727 5728 5730 5731 5732 5733 5733 5733 5733 5732 5732 5730 5729 5727 5726 5723 5721 5719
5523 5529 5534 5541 5548 5555 5562 5573 5583 5591 5599 5606 5614 5620 5627 5634 5641 5649 5656 5663 5669 5675 5681 5687 5692 5697 5701 5706 5709 5712 5715 5717 5719 5721 5722 5723 5724 5724 5724 5724 5724 5723 5722 5721 5719 5717 5715 5713 5710
5513 5519 5526 5533 5539 5547 5555 5567 5574 5581 5588 5595 5603 5610 5616 5623 5630 5638 5645 5652 5658 5665 5671 5676 5682 5687 5692 5696 5699 5702 5705 5708 5710 5712 5713 5714 5715 5715 5716 5716 5715 5715 5714 5712 5711 5709 5707 5705 5702